TimeCST,TemperatureF,Dew PointF,Humidity,Sea Level PressureIn,VisibilityMPH,Wind Direction,Wind SpeedMPH,Gust SpeedMPH,PrecipitationIn,Events,Conditions,WindDirDegrees,DateUTC
12:53 AM,27.0,10.0,49,30.19,10.0,Calm,Calm,-,N/A,,Overcast,0,2013-01-25 06:53:00
1:53 AM,27.0,10.0,49,30.20,10.0,North,8.1,-,N/A,,Overcast,360,2013-01-25 07:53:00
2:53 AM,26.1,10.0,51,30.19,10.0,North,5.8,-,N/A,,Overcast,360,2013-01-25 08:53:00
3:53 AM,25.0,10.0,53,30.17,10.0,North,4.6,-,N/A,,Overcast,360,2013-01-25 09:53:00
4:53 AM,25.0,10.0,53,30.17,10.0,NW,3.5,-,N/A,,Overcast,320,2013-01-25 10:53:00
5:39 AM,23.0,10.4,59,30.13,10.0,Calm,Calm,-,N/A,,Scattered Clouds,0,2013-01-25 11:39:00
5:53 AM,23.0,10.0,58,30.17,10.0,Calm,Calm,-,N/A,,Clear,0,2013-01-25 11:53:00
6:53 AM,21.9,10.0,60,30.21,10.0,Calm,Calm,-,N/A,,Clear,0,2013-01-25 12:53:00
7:53 AM,21.0,10.0,63,30.22,10.0,Calm,Calm,-,N/A,,Clear,0,2013-01-25 13:53:00
8:53 AM,25.0,10.9,55,30.23,10.0,WNW,6.9,-,N/A,,Clear,290,2013-01-25 14:53:00
9:53 AM,30.0,12.9,49,30.23,10.0,West,8.1,-,N/A,,Clear,280,2013-01-25 15:53:00
10:53 AM,33.1,15.1,48,30.25,10.0,NW,9.2,-,N/A,,Clear,320,2013-01-25 16:53:00
11:53 AM,36.0,16.0,44,30.24,10.0,West,8.1,-,N/A,,Clear,260,2013-01-25 17:53:00
12:53 PM,39.9,17.1,40,30.22,10.0,Variable,6.9,-,N/A,,Clear,0,2013-01-25 18:53:00
1:53 PM,43.0,18.0,37,30.20,10.0,WNW,4.6,-,N/A,,Clear,300,2013-01-25 19:53:00
2:53 PM,45.0,18.0,34,30.19,10.0,West,6.9,-,N/A,,Clear,270,2013-01-25 20:53:00
3:53 PM,45.0,18.0,34,30.20,10.0,West,5.8,-,N/A,,Clear,270,2013-01-25 21:53:00
4:53 PM,44.1,18.0,35,30.20,10.0,West,4.6,-,N/A,,Clear,260,2013-01-25 22:53:00
5:53 PM,41.0,19.0,41,30.22,10.0,WSW,3.5,-,N/A,,Clear,240,2013-01-25 23:53:00
6:53 PM,39.0,19.9,46,30.22,10.0,Calm,Calm,-,N/A,,Clear,0,2013-01-26 00:53:00
7:53 PM,37.0,21.0,52,30.24,10.0,Calm,Calm,-,N/A,,Clear,0,2013-01-26 01:53:00
8:53 PM,34.0,19.9,56,30.25,10.0,Calm,Calm,-,N/A,,Clear,0,2013-01-26 02:53:00
9:53 PM,34.0,21.0,59,30.25,10.0,Calm,Calm,-,N/A,,Clear,0,2013-01-26 03:53:00
10:53 PM,30.9,19.9,64,30.26,10.0,Calm,Calm,-,N/A,,Clear,0,2013-01-26 04:53:00
11:53 PM,32.0,19.9,61,30.26,10.0,Calm,Calm,-,N/A,,Clear,0,2013-01-26 05:53:00